Theta_e
337 337 334 334 334 334 334 334 334 335 336 337 338 338 338 337 335 336 336 337 341 343 341 338 335 334 334 334 334 333 330 328 326 326 333 337 336 337 335 332 334 336 336 338 340 342 346 347 344 343 343 344 343 342 342 342 340 339 339 338 338 337 336
336 336 335 334 335 334 334 334 334 334 334 335 336 336 337 337 335 335 335 333 338 342 342 341 337 335 334 334 334 334 330 327 326 324 330 338 338 336 334 333 335 334 332 335 336 336 340 344 346 345 344 344 344 343 342 342 341 339 338 339 339 338 337
337 337 335 335 335 335 335 333 331 332 334 334 335 336 336 336 336 334 335 334 336 341 342 342 341 338 336 333 332 332 330 327 326 323 326 336 339 336 333 333 335 333 332 334 335 335 335 337 343 346 344 343 344 343 342 342 342 340 339 340 340 339 338
334 337 338 336 335 336 335 330 327 329 332 334 335 336 336 337 336 335 336 337 338 341 342 342 342 339 336 335 332 330 328 326 325 325 326 333 338 336 332 331 330 330 332 333 333 334 336 336 339 344 343 342 342 342 342 342 342 341 341 340 340 340 339
328 333 337 338 337 336 333 328 323 325 329 331 334 335 336 337 338 336 336 337 339 340 341 341 342 340 337 336 334 330 329 328 327 327 329 332 335 335 333 330 327 328 331 333 331 333 336 336 336 339 342 343 342 342 342 341 342 342 341 341 340 340 339
326 327 333 338 339 338 335 330 325 322 325 329 332 334 335 336 338 335 334 336 339 341 341 340 342 342 339 337 335 332 330 331 331 330 331 331 333 334 334 332 329 329 333 333 331 333 335 335 335 337 341 343 343 343 342 341 341 341 341 341 341 340 339
325 326 328 332 337 339 337 335 332 326 327 329 332 333 334 336 335 333 334 337 338 341 341 340 341 341 341 339 336 334 332 332 332 333 334 332 333 336 336 334 333 332 333 333 331 334 336 336 337 337 338 341 343 343 342 341 341 341 341 341 341 341 340
325 325 325 327 333 338 339 338 336 335 334 335 335 334 334 335 333 332 338 340 339 341 342 341 340 340 341 340 338 337 334 333 334 335 336 335 334 337 337 336 335 333 333 332 332 333 336 337 337 335 334 342 345 343 342 341 340 339 340 340 340 341 340
323 325 325 325 327 333 338 339 339 339 339 337 335 334 334 335 334 337 341 341 340 343 343 341 341 340 341 341 340 339 337 335 335 336 337 338 336 336 337 337 337 336 334 332 332 334 335 336 337 334 332 337 343 345 344 343 341 340 339 339 339 340 340
322 323 325 325 325 327 332 337 339 340 340 340 338 338 338 339 338 340 342 341 341 343 343 342 342 341 341 341 340 340 339 337 337 338 338 339 338 335 335 337 338 338 335 333 333 334 334 334 335 335 334 332 336 343 345 345 343 340 338 338 338 339 340
322 323 324 325 325 324 326 330 336 339 341 341 341 341 340 341 340 338 339 341 342 343 343 344 343 342 341 342 341 340 340 338 337 338 338 338 338 336 334 335 336 338 337 335 334 334 335 335 334 335 336 333 332 336 341 344 345 341 337 337 337 338 339
321 322 323 324 325 325 324 325 329 335 339 340 341 341 341 341 340 338 338 340 342 343 344 344 344 343 342 342 342 341 340 339 338 338 339 338 338 337 335 334 333 336 336 336 336 335 335 337 337 335 337 336 334 333 334 340 347 344 338 337 337 337 338
319 320 322 323 325 325 325 324 324 328 333 338 341 341 341 341 340 339 339 340 342 343 344 344 344 344 343 343 343 343 341 340 339 339 339 339 338 337 337 335 334 335 335 335 336 337 335 336 338 338 337 337 337 335 333 336 345 346 340 337 338 337 338
318 319 320 322 323 325 325 325 324 324 327 333 339 340 340 339 339 340 341 340 341 342 342 344 345 344 344 343 343 343 342 341 339 339 339 339 339 339 338 337 336 336 335 333 334 337 337 336 338 339 338 338 339 338 335 336 342 344 341 339 338 338 338
318 319 320 321 322 323 324 325 326 325 324 327 333 338 340 339 338 340 342 341 340 340 341 343 344 344 343 342 342 343 342 342 340 339 339 339 339 340 340 339 338 337 336 333 333 335 336 337 339 340 340 340 340 339 337 337 340 342 343 342 339 338 338
317 318 319 320 321 322 323 324 325 326 326 325 328 334 338 339 338 338 340 341 340 339 340 342 344 344 343 342 342 343 342 341 341 340 339 339 339 339 340 340 339 338 337 336 334 333 335 338 340 340 341 341 340 340 338 338 340 341 343 343 341 339 339
317 317 318 319 320 321 322 323 324 325 326 326 327 330 335 338 339 338 338 339 340 340 339 341 343 343 343 343 343 343 342 341 341 341 340 339 338 338 339 341 340 339 339 338 336 334 334 337 341 342 342 342 341 340 338 339 340 341 342 343 342 341 340
317 317 317 318 319 320 321 322 323 324 325 326 327 329 331 334 338 339 337 336 337 339 338 340 342 342 342 343 343 343 343 341 341 341 340 339 339 338 339 340 339 340 340 340 338 336 335 337 341 343 342 343 342 341 339 340 342 341 342 343 343 342 340
317 317 317 318 318 319 320 321 322 323 324 326 327 328 330 332 335 337 338 337 336 336 337 338 339 339 340 342 343 344 343 342 342 341 341 340 339 338 339 339 339 340 341 341 340 339 338 338 341 342 342 342 343 341 340 340 342 343 342 343 344 343 341
316 317 317 318 318 318 319 320 321 322 323 325 326 327 329 331 333 335 337 338 337 336 335 336 336 337 340 342 343 344 344 343 342 342 341 340 339 339 338 338 339 339 340 341 341 341 340 340 340 341 341 342 342 342 341 341 342 343 342 342 344 343 341
316 317 317 317 318 318 319 320 321 321 322 323 325 326 328 330 332 333 335 337 339 338 336 335 335 336 337 340 343 344 344 343 342 342 342 340 340 339 338 337 337 338 340 341 341 341 341 341 341 341 341 341 342 342 342 341 342 344 343 342 343 343 342
316 316 317 317 318 318 318 319 320 321 321 322 323 325 327 329 330 332 334 336 338 339 337 335 334 334 335 338 341 343 343 343 343 342 341 341 340 339 339 338 337 336 338 339 340 340 340 340 341 341 341 341 341 342 343 341 342 344 344 343 343 343 342
316 316 317 317 317 318 318 318 319 320 321 322 323 323 325 327 329 331 333 335 336 338 338 336 334 333 333 335 339 342 343 343 343 342 341 340 340 340 339 338 337 336 336 336 338 339 339 339 339 340 341 341 342 342 343 342 342 343 344 343 343 342 342
316 316 317 317 317 318 318 318 318 319 320 322 322 323 324 325 327 329 331 333 335 336 337 336 334 333 333 333 336 340 342 343 343 342 341 340 340 339 339 338 337 336 335 334 335 337 338 338 338 338 340 341 342 342 342 343 343 343 344 344 344 343 342
317 318 318 318 318 318 318 318 318 318 320 321 322 323 323 324 326 327 329 332 333 334 335 336 335 333 332 331 332 337 341 343 343 342 342 341 339 339 338 338 337 336 336 335 334 334 336 337 337 337 338 339 341 341 342 343 342 342 343 344 344 344 342
318 319 319 319 319 318 318 318 318 318 319 320 321 322 323 324 325 326 329 331 333 333 333 335 335 333 332 331 330 334 340 342 342 342 341 340 339 339 338 338 337 337 336 336 336 335 336 336 336 337 337 338 339 339 341 342 342 340 340 342 343 344 343
318 320 320 320 319 318 318 318 318 318 319 319 320 322 323 324 325 327 329 331 332 332 332 333 333 332 331 330 331 334 339 341 342 342 341 339 339 339 339 338 338 337 337 337 337 336 336 335 335 336 337 338 339 339 339 340 339 339 339 340 341 343 344
319 320 320 320 319 319 319 318 318 318 319 319 320 321 322 323 325 328 330 331 331 331 332 332 331 331 330 330 332 336 339 341 341 340 339 338 338 339 339 339 338 337 337 337 337 336 335 335 334 335 336 337 338 338 338 337 336 336 339 340 340 342 343
320 320 320 319 319 319 318 318 318 318 319 319 320 321 322 324 327 329 329 330 330 330 331 331 331 330 329 329 331 335 337 339 340 340 339 339 338 338 339 339 338 337 337 336 336 335 334 334 335 335 335 336 336 336 337 336 335 337 340 341 341 342 342
320 320 320 319 319 319 319 318 318 319 319 320 320 322 324 325 327 329 329 329 329 330 330 330 330 330 329 329 331 335 337 337 338 339 339 339 339 338 339 339 338 338 337 336 336 335 334 334 335 336 336 336 336 336 336 335 334 337 340 341 342 342 342
320 320 320 319 319 319 320 319 319 319 320 320 321 323 325 325 326 328 329 329 329 328 328 328 329 329 330 329 330 333 336 336 337 337 338 338 338 338 338 339 339 338 338 337 336 335 335 334 335 336 336 336 336 336 336 336 335 338 340 340 340 342 342
320 320 320 319 319 320 321 320 319 319 320 321 321 322 323 325 325 326 327 328 329 329 329 330 328 328 329 329 329 331 334 335 335 336 337 337 338 338 338 339 339 338 337 337 337 336 336 336 336 336 336 336 336 336 336 336 337 338 340 340 340 340 341
319 320 319 319 319 320 321 321 320 319 320 321 322 321 322 324 326 326 326 326 326 327 328 330 329 328 328 327 326 327 329 333 335 336 336 337 336 337 338 338 339 339 338 337 337 337 336 335 335 336 336 336 336 336 336 336 337 338 339 340 340 339 339
318 319 319 320 320 319 320 322 321 319 320 320 321 321 322 324 325 326 325 325 324 324 326 328 330 330 329 327 326 325 326 329 332 334 335 336 335 335 337 338 338 339 340 339 339 339 338 336 335 336 337 336 337 337 336 336 337 337 338 340 340 340 340
316 318 319 320 321 320 320 321 322 321 322 322 323 323 324 324 325 325 324 324 324 325 326 328 329 328 327 327 326 326 326 327 328 329 331 334 335 335 335 336 337 338 339 339 340 341 340 339 338 337 337 337 338 337 337 336 336 337 337 337 338 339 339
315 317 317 318 320 320 319 320 321 320 320 322 323 324 324 324 324 324 323 323 323 324 324 325 326 326 325 325 324 324 325 326 327 327 326 329 333 335 334 335 335 336 337 338 339 340 340 340 339 338 337 337 337 337 337 336 336 335 335 335 336 336 336
313 315 316 316 317 318 318 319 320 319 318 320 322 323 324 324 324 324 323 323 322 323 323 323 323 324 323 323 323 324 324 324 327 328 327 327 329 332 334 335 334 335 336 337 337 338 339 339 339 338 337 336 336 337 337 335 334 334 334 334 334 335 335
Wind_Speed
13 10 11 12 10 8 7 7 10 12 15 20 23 25 26 25 23 22 24 28 26 24 23 24 24 25 27 26 24 25 26 26 26 22 18 22 23 20 20 20 13 8 13 15 13 12 6 2 6 9 12 15 16 15 15 16 16 16 16 18 19 19 20
14 11 12 11 10 10 9 8 8 9 12 17 19 22 25 26 25 23 24 31 28 24 23 23 24 23 26 28 26 24 26 25 26 25 20 20 23 21 18 18 15 13 11 9 11 11 5 4 5 5 9 12 13 15 16 16 15 16 17 18 17 18 20
13 13 12 12 13 13 12 11 10 9 11 14 16 21 25 26 26 26 27 30 30 25 23 22 24 23 23 27 28 25 24 24 24 26 24 20 21 21 21 20 18 14 11 8 9 9 5 4 4 6 11 13 11 13 17 18 17 16 18 18 17 18 19
12 12 12 14 15 14 13 12 11 10 10 12 15 20 25 25 26 28 30 32 30 28 25 22 23 24 23 24 26 26 25 26 25 25 25 23 21 21 21 23 23 20 15 12 12 14 10 5 5 6 11 15 13 14 18 19 18 18 18 18 18 19 19
12 12 12 15 16 15 15 13 12 12 13 13 16 20 24 25 26 30 34 35 31 27 26 23 22 23 23 22 23 26 26 26 26 25 25 25 23 22 22 23 25 24 22 19 17 18 16 12 10 6 10 16 12 11 18 18 17 18 18 18 19 20 19
12 13 13 15 16 17 17 17 16 16 17 19 22 24 25 27 29 31 37 37 32 27 26 26 23 22 23 22 22 25 26 25 26 25 25 26 25 24 24 24 25 24 23 22 19 18 19 17 13 7 11 17 11 10 17 18 15 15 17 19 18 19 20
13 14 15 15 16 17 19 21 20 20 23 26 29 28 28 32 35 35 35 32 29 27 26 26 26 24 23 23 22 24 26 25 26 25 23 25 25 24 24 25 26 25 23 23 21 19 20 20 16 11 10 13 12 13 16 16 16 15 16 19 19 20 21
14 14 15 16 16 17 21 23 24 26 28 32 37 36 34 39 42 40 36 31 27 27 27 26 26 26 26 24 21 22 25 25 25 26 24 23 24 24 24 24 26 26 24 22 22 21 21 21 20 17 11 6 8 8 9 12 15 16 16 17 19 21 22
16 16 17 18 18 18 20 23 26 29 31 35 40 39 37 39 39 36 33 31 29 29 28 27 27 27 27 27 24 22 24 26 25 26 27 25 25 25 24 23 24 25 25 23 21 21 21 21 19 19 17 10 7 5 5 7 9 13 18 19 18 21 22
16 17 18 19 20 20 21 22 23 26 30 32 34 33 30 30 29 28 28 29 30 31 31 29 28 27 27 28 28 25 23 25 26 27 28 28 27 27 26 24 23 24 24 24 22 20 21 22 20 20 20 18 13 7 5 5 5 9 17 20 19 20 23
16 17 18 20 21 22 23 24 23 24 27 29 29 29 27 26 26 27 28 28 29 32 33 31 29 29 28 27 29 28 24 24 25 26 27 28 28 27 28 27 25 24 23 24 24 22 20 22 23 22 20 20 19 12 7 5 6 12 18 20 20 21 25
16 17 18 20 21 23 25 25 25 24 25 28 29 28 27 27 28 28 29 29 30 33 33 32 30 29 29 27 28 29 27 24 25 26 26 27 27 27 28 29 28 27 25 24 24 24 23 21 23 23 20 19 20 19 15 7 5 12 19 20 20 22 26
19 19 19 20 21 23 24 25 26 27 26 27 28 28 29 29 29 30 31 30 31 34 33 31 31 31 30 28 27 28 29 27 25 26 26 26 26 26 27 28 29 30 28 25 24 25 26 23 22 24 22 20 19 20 20 13 4 9 18 23 23 22 25
21 20 20 21 22 23 24 24 26 27 27 28 28 28 30 30 28 29 32 33 33 34 34 32 31 31 32 30 27 27 28 28 27 26 26 26 26 26 27 28 29 29 29 28 26 24 27 26 23 24 24 23 21 20 21 18 9 8 13 21 25 23 24
22 21 22 22 23 23 24 25 25 26 27 28 28 28 29 31 30 29 30 34 35 34 34 33 31 31 31 31 29 28 28 29 28 27 27 27 27 27 27 27 28 28 28 29 28 25 25 27 25 25 25 25 24 22 22 21 15 10 11 17 24 23 24
24 25 24 23 23 24 24 25 25 25 27 28 29 29 29 30 31 30 30 33 35 36 34 32 30 30 31 31 31 30 30 30 29 27 28 28 28 27 27 28 27 28 28 28 29 28 26 26 27 26 26 26 26 25 24 24 21 15 13 17 23 24 25
24 26 26 25 24 24 24 25 25 26 27 27 28 29 30 30 30 31 31 31 33 34 33 32 30 30 31 31 31 31 31 32 31 29 28 28 28 28 28 29 28 28 28 28 29 29 27 26 26 27 26 26 27 27 25 26 26 21 17 18 22 24 26
24 25 27 27 27 25 25 25 25 26 28 28 28 29 30 30 30 31 31 30 30 31 32 32 31 31 32 32 31 31 31 32 32 31 29 28 28 29 29 30 30 29 28 28 29 30 29 28 26 26 26 26 27 27 26 25 27 26 20 20 23 23 25
24 25 25 27 27 27 27 27 26 26 27 28 29 29 30 31 31 31 32 31 31 32 32 32 31 31 32 32 32 31 31 31 32 31 31 30 29 28 28 29 30 31 30 29 28 29 29 29 27 26 26 26 26 26 26 25 27 28 23 22 24 23 24
25 26 26 26 27 27 27 27 27 27 27 28 29 30 30 31 31 32 32 31 32 34 33 31 31 31 31 32 32 31 30 30 31 32 32 34 33 29 27 27 27 29 31 31 29 29 29 29 28 27 26 26 25 25 26 25 25 27 25 22 23 24 25
25 26 27 27 27 27 27 27 27 28 28 29 30 31 30 31 32 32 32 31 32 34 33 31 31 31 31 32 32 31 30 29 30 32 33 34 34 31 29 28 27 28 29 31 31 30 29 29 29 28 28 27 26 25 26 26 24 25 25 22 21 23 24
26 26 27 28 28 28 28 28 28 27 29 30 31 31 31 31 32 32 32 31 32 33 34 33 32 32 32 32 32 31 29 30 31 32 32 33 34 32 31 31 31 30 29 30 31 31 31 31 29 28 28 28 27 25 25 26 24 23 23 22 21 21 23
26 27 28 29 30 29 29 29 29 28 29 29 30 32 32 31 32 32 32 32 32 32 33 33 32 33 33 32 33 32 30 30 31 31 30 32 34 34 34 34 34 34 33 32 33 34 35 34 33 31 29 28 28 27 26 25 25 25 23 22 22 22 20
27 27 28 30 30 30 29 29 29 29 28 29 30 31 31 32 32 32 32 32 33 33 32 32 32 32 34 33 33 33 32 30 29 30 30 32 34 37 37 36 36 37 38 38 37 37 37 36 35 33 31 29 28 30 29 27 26 26 25 23 23 24 23
26 28 30 32 32 31 30 30 29 29 29 29 29 30 32 32 32 32 31 30 34 35 33 33 31 29 31 34 35 34 32 31 29 28 30 32 34 36 37 38 38 38 40 41 40 39 39 39 37 34 32 30 29 29 30 31 30 28 26 25 23 24 26
26 27 30 32 32 31 30 30 30 30 30 29 28 29 31 31 32 34 31 29 32 34 34 34 34 31 28 30 34 36 32 30 30 29 29 32 34 36 38 38 38 38 38 39 39 38 38 40 39 36 33 32 32 30 28 31 33 31 28 26 25 26 30
28 28 26 26 28 28 29 29 30 30 29 29 29 30 31 32 33 33 30 28 29 30 30 32 34 36 32 29 32 37 32 28 30 29 29 31 32 34 38 39 38 38 37 38 37 36 36 37 38 38 36 34 35 34 31 31 33 34 32 28 25 26 30
29 28 23 21 23 26 27 28 28 29 28 28 28 29 31 33 32 31 28 27 29 29 32 32 30 31 30 25 28 35 32 27 28 28 28 30 31 31 35 38 39 38 36 37 37 37 37 37 37 38 38 36 36 36 37 36 36 38 38 36 32 28 27
28 24 20 17 19 22 25 27 28 28 28 28 28 29 30 29 27 27 27 28 30 31 33 35 34 32 29 23 25 34 34 28 27 27 27 29 30 30 32 35 37 37 36 35 37 38 39 38 37 37 36 36 37 37 40 43 42 41 42 42 39 35 30
25 21 17 16 17 20 22 23 23 23 23 24 26 25 24 23 23 24 25 26 29 30 30 34 37 37 34 28 28 35 38 33 28 27 28 30 31 31 31 33 34 36 36 35 36 38 40 39 37 36 35 35 36 38 40 45 46 46 47 46 43 40 37
23 17 15 16 18 20 21 21 20 18 17 18 19 18 16 19 22 25 26 27 29 30 29 32 36 38 38 35 33 36 38 34 30 29 29 30 30 30 30 31 32 34 35 35 36 37 39 40 39 37 37 36 35 36 38 41 42 43 46 49 49 46 42
26 19 16 18 21 20 18 19 20 19 17 16 16 17 16 17 19 20 19 21 25 26 23 21 22 26 29 32 35 39 38 33 30 30 29 28 29 29 28 28 30 34 35 35 36 37 38 40 40 40 39 37 34 36 40 41 40 40 41 44 47 48 47
29 24 20 18 20 19 17 18 19 19 18 17 17 18 19 18 19 19 15 13 13 15 15 12 12 14 16 19 25 30 31 28 28 29 29 27 26 26 27 26 27 31 34 35 36 37 38 40 42 41 40 37 36 39 42 43 42 42 40 40 41 42 43
30 26 23 21 19 17 16 17 19 17 16 17 16 16 17 19 21 23 21 17 15 16 17 16 16 18 18 18 20 22 22 25 28 26 25 26 26 24 25 26 26 29 33 35 36 36 38 41 44 43 42 41 43 45 44 43 44 43 40 38 36 34 33
31 28 27 26 23 20 16 12 10 10 11 14 15 14 13 13 15 15 16 18 19 19 21 21 20 20 20 20 22 21 20 25 29 27 24 23 25 24 23 24 26 27 31 34 36 37 37 39 44 47 46 45 46 48 46 44 43 42 39 37 36 35 32
29 28 29 30 26 22 21 19 15 13 11 9 8 10 9 9 11 11 11 14 16 17 18 20 23 24 22 21 22 23 24 27 29 29 29 26 22 23 23 23 24 26 29 34 37 38 38 39 43 47 49 47 46 47 47 45 41 39 39 38 36 34 33
28 27 29 30 27 25 25 25 21 17 17 16 10 5 4 6 9 9 10 12 14 15 17 18 21 24 25 24 23 25 29 29 24 23 28 27 23 21 21 21 23 24 26 30 35 37 38 40 43 46 47 47 46 45 44 41 38 34 34 34 31 28 28
Wind_Direction
236 232 234 227 216 218 224 231 230 228 235 232 228 225 224 228 226 224 239 243 225 214 215 212 210 212 211 213 214 211 209 207 208 210 195 186 195 212 226 226 227 209 172 168 172 167 154 166 185 179 176 183 190 189 186 187 191 193 188 189 189 185 184
250 246 244 235 216 214 224 238 243 239 239 236 232 230 227 226 223 221 238 248 235 216 214 214 212 214 214 214 216 213 210 208 208 212 206 191 193 201 209 214 216 217 213 204 193 188 174 160 170 175 174 180 190 196 196 192 194 196 192 193 192 188 186
254 252 249 238 224 220 221 225 238 247 243 239 239 239 236 234 229 221 222 233 234 222 214 215 214 215 216 216 218 217 214 213 211 214 213 201 195 198 201 205 208 210 213 220 220 216 216 194 175 169 175 177 183 195 198 196 197 196 193 195 193 191 190
260 253 249 250 246 237 230 228 239 253 257 251 247 243 239 237 235 228 219 218 224 221 214 216 217 216 217 217 217 219 218 217 216 216 214 207 202 202 205 207 208 208 204 207 211 205 205 203 176 168 179 184 181 183 193 199 200 196 196 198 196 195 192
276 269 259 262 266 262 255 255 260 269 272 263 256 252 243 234 232 234 232 224 220 219 214 215 218 217 219 220 217 217 217 217 216 216 212 207 206 206 209 211 210 208 205 208 211 202 199 200 195 182 174 182 183 175 181 190 197 201 201 198 200 202 194
286 284 277 271 270 269 263 257 255 260 264 260 254 251 246 238 231 236 240 232 221 217 214 216 217 217 219 220 219 216 216 216 213 213 212 206 207 208 208 209 208 206 205 208 215 207 197 200 207 204 179 178 171 156 167 177 188 202 207 202 201 203 196
286 284 281 275 267 262 256 248 240 238 242 246 245 242 242 240 232 231 236 232 225 220 215 215 216 216 219 219 219 216 215 217 214 213 214 209 207 208 206 205 203 204 209 211 216 210 198 200 207 212 198 173 151 147 161 175 183 190 205 209 205 203 198
289 284 281 278 270 258 249 240 231 227 226 230 233 231 228 227 224 223 223 224 227 226 218 216 216 216 219 218 219 218 215 217 216 215 217 214 211 208 205 204 202 204 210 213 216 214 203 202 204 208 212 174 137 148 163 176 185 186 196 205 207 207 201
289 285 279 277 271 262 251 239 229 224 220 220 224 222 215 212 215 218 216 215 220 223 219 216 216 216 217 217 218 219 215 215 215 215 217 217 216 213 210 207 204 205 210 213 218 216 209 208 208 210 217 205 166 152 166 185 190 187 190 195 202 209 203
279 279 274 272 270 266 261 252 241 232 227 225 226 224 215 209 214 218 217 215 217 220 219 217 217 217 217 218 218 218 217 214 213 214 215 217 217 217 216 213 209 207 209 213 218 218 214 213 212 214 220 218 204 177 160 191 201 192 192 192 194 201 199
270 271 269 267 266 265 264 260 256 249 242 237 234 230 222 211 211 215 218 220 220 220 219 218 219 218 217 218 218 218 218 216 214 214 215 216 217 217 218 217 216 213 211 212 215 217 217 215 214 217 222 223 222 218 197 179 190 199 196 191 191 195 193
271 268 266 265 263 262 262 261 260 258 253 246 239 232 225 215 210 210 213 218 221 220 218 217 218 218 217 218 217 217 218 217 217 217 215 215 215 215 216 217 218 217 214 213 213 215 217 217 214 216 221 224 227 232 227 210 181 195 195 189 192 196 190
269 267 266 265 263 260 261 261 259 259 258 253 245 235 230 223 215 209 207 211 216 219 217 216 217 217 217 217 217 216 216 217 219 219 217 216 215 215 215 215 217 217 216 215 214 212 214 218 217 216 220 224 229 234 233 230 205 187 197 194 193 196 190
271 264 262 263 264 263 262 262 260 258 257 256 251 243 236 231 223 212 207 208 211 215 216 215 215 217 217 217 218 217 215 215 219 220 219 217 215 214 214 214 216 217 216 216 217 213 211 214 218 218 220 223 228 233 231 228 217 183 192 196 195 196 189
285 275 265 258 259 262 263 263 262 261 257 255 254 250 243 237 229 217 207 208 212 215 214 213 214 215 216 215 217 218 216 214 217 220 220 219 216 214 213 214 215 216 216 216 218 217 213 212 214 216 218 220 224 230 229 224 217 193 178 186 192 195 187
288 286 278 265 259 259 260 261 261 261 260 255 252 251 248 243 236 227 216 211 213 215 213 211 213 213 213 213 215 218 218 215 216 218 219 220 218 216 214 214 214 213 213 214 217 218 217 213 212 213 216 218 220 226 228 222 215 203 183 178 187 190 183
281 281 282 277 268 261 258 260 260 260 260 257 251 249 248 246 242 236 228 220 216 215 213 211 210 210 212 213 215 218 219 217 216 219 220 220 220 218 216 215 215 213 210 211 213 217 218 215 213 213 214 217 219 222 225 220 213 209 192 180 187 189 184
279 276 275 276 273 267 261 259 258 258 258 257 254 248 245 244 243 240 236 229 223 220 216 211 209 211 213 214 215 217 218 216 215 217 220 221 221 220 218 217 216 214 211 210 210 212 216 216 214 213 213 216 218 221 224 220 212 211 201 184 186 192 188
283 278 273 270 270 269 264 258 257 257 256 256 255 251 246 242 241 240 238 233 228 226 222 215 212 212 212 212 214 216 216 215 214 215 217 219 221 222 221 220 218 216 214 213 212 210 211 214 214 214 215 217 218 220 225 222 212 210 209 193 185 188 187
283 280 275 271 267 265 263 258 254 254 255 255 255 253 248 243 240 239 238 234 230 229 227 219 213 212 210 210 212 213 214 215 215 216 218 220 222 225 227 227 224 219 216 216 216 214 211 213 215 216 217 219 219 219 224 225 215 209 210 201 187 184 185
283 279 276 273 268 263 261 259 254 251 252 253 253 253 250 246 242 240 238 235 230 228 229 224 216 212 211 209 210 211 213 214 216 218 220 220 223 227 231 234 233 225 219 217 218 216 212 211 214 217 220 221 222 222 223 224 219 211 210 207 194 185 183
282 278 275 273 270 265 261 259 256 250 248 250 251 251 251 249 245 241 239 236 232 229 228 227 221 217 213 209 208 209 211 213 215 218 220 220 222 225 229 233 234 230 225 220 218 217 214 210 208 212 218 222 223 224 225 225 221 213 210 209 203 189 180
275 273 272 271 269 266 262 259 256 252 248 248 249 249 250 249 246 243 240 236 233 230 229 229 226 223 219 212 208 208 209 212 215 217 219 220 219 221 226 229 231 231 231 228 224 221 220 215 210 208 211 218 222 223 226 227 222 216 212 210 207 197 185
267 265 266 266 265 263 261 258 255 254 251 248 248 249 249 249 246 243 241 237 233 231 230 230 228 226 224 217 209 206 207 210 213 216 218 219 219 220 223 227 229 230 233 235 233 229 227 225 222 216 210 212 219 223 226 229 227 219 214 212 210 205 199
267 262 262 263 261 259 257 255 252 252 252 249 249 250 248 248 247 243 240 237 235 234 232 229 229 230 232 227 214 206 205 207 209 213 218 220 222 222 222 226 230 232 234 236 237 235 232 231 230 227 220 215 218 224 227 231 232 227 218 216 214 210 208
278 270 261 255 253 253 253 252 250 249 251 249 248 251 249 247 247 244 239 233 231 233 232 230 230 231 240 245 227 210 206 207 206 210 216 220 223 224 224 226 229 231 232 233 233 233 233 232 231 230 228 224 221 225 228 232 237 237 229 223 220 217 216
289 284 269 247 241 246 250 251 249 247 249 248 246 250 249 246 245 242 237 228 224 226 226 228 231 228 235 252 239 215 205 205 207 210 217 222 225 227 228 228 228 229 230 230 229 228 228 232 232 230 229 228 225 225 228 234 244 247 241 236 233 228 223
291 288 277 249 237 241 246 250 250 248 249 248 246 248 249 247 244 237 233 227 225 227 227 228 231 228 230 244 237 218 208 205 209 215 220 224 228 230 231 231 229 227 228 228 227 226 225 228 231 229 228 226 225 225 226 232 245 253 249 245 245 243 236
295 288 282 261 243 239 241 246 249 248 249 250 250 251 250 247 241 231 228 229 228 231 234 234 233 230 227 229 226 220 217 214 215 219 222 226 229 231 234 234 231 228 228 228 227 227 227 226 225 225 226 225 224 225 224 226 234 244 247 246 248 251 251
306 291 288 278 262 249 242 245 249 249 254 258 257 255 249 242 235 226 222 226 228 229 232 234 233 230 228 228 224 221 220 219 220 223 224 226 228 230 234 237 233 229 228 230 229 228 226 223 219 218 220 222 222 223 225 226 229 235 240 241 243 248 253
328 307 297 290 280 264 246 243 247 247 256 265 260 254 249 244 241 234 224 222 228 231 231 232 232 230 229 230 229 226 223 221 222 224 226 228 228 229 233 236 234 230 229 230 230 229 225 221 217 215 215 216 217 220 223 225 228 233 237 237 238 242 249
346 337 318 296 284 272 251 242 242 238 242 252 243 233 234 239 245 248 241 232 229 227 224 225 227 230 233 235 233 229 224 221 222 225 227 228 227 228 231 234 234 233 232 230 229 229 227 222 218 217 215 213 214 219 222 221 223 229 234 236 235 236 241
351 355 348 323 300 285 266 250 242 235 235 241 232 220 218 222 225 231 244 255 244 227 222 219 216 225 242 254 251 239 228 224 225 225 227 228 228 228 229 233 236 234 231 229 229 230 230 228 224 221 217 214 215 219 222 222 221 223 227 231 231 232 236
352 358 0 354 338 316 288 261 248 243 238 235 229 218 214 218 221 222 229 242 245 239 240 239 231 230 238 256 268 266 254 246 240 233 228 226 226 229 228 228 232 234 230 228 230 232 233 233 231 226 221 220 221 223 223 223 222 222 223 226 226 224 228
355 358 360 1 2 355 339 317 295 283 261 236 220 211 207 214 223 220 215 218 220 223 231 237 235 235 239 245 254 262 268 266 259 254 251 238 224 224 229 227 228 234 234 231 230 232 233 236 235 231 227 226 227 227 226 224 223 223 223 225 224 221 220
355 359 1 3 8 9 360 354 355 347 330 300 245 219 210 211 220 221 210 208 211 214 223 233 235 236 240 242 244 250 258 264 263 260 264 264 242 224 226 230 230 235 238 235 232 231 232 235 236 234 231 228 228 229 229 227 225 223 223 227 226 221 218
354 358 2 5 11 14 8 5 8 7 0 354 343 304 257 220 213 223 231 232 234 232 230 234 237 237 238 239 240 244 247 255 262 253 249 260 262 244 231 228 230 236 241 239 235 233 233 235 237 237 234 230 230 231 231 229 226 223 222 225 226 221 216